Location: ???
(35.5616°N, 139.7977°E)
Time: 20:37:05
(UTC+00:00)

Okean 2 Rocket - Pass Details

Date: 17 November 2025
Orbit: 611 x 635 km, 82.5° (Epoch: 08 December)

Event Time Altitude Azimuth Distance (km) Brightness Sun altitude
Rises 20:32:35 0° 347° (NNW) 2,880 6.2 -9.7°
Reaches altitude 10° 20:34:50 10° 343° (NNW) 1,973 5.3 -9.3°
Maximum altitude 20:39:05 54° 267° (W) 748 3.2 -8.5°
Drops below altitude 10° 20:43:20 10° 190° (S) 1,969 5.8 -7.6°
Sets 20:45:35 0° 185° (S) 2,873 6.7 -7.2°
